This is the latest recevied weather packets stored in our database for station/object HK6RM-16. If no packets are shown the sender has not sent any weather packets the latest 1 day(s).
| Time | Temp. | Humidity | Pressure | Rain* | Wind** | Luminosity | Snow |
|---|---|---|---|---|---|---|---|
| 1778107258 | 15° C | 70% | 1013 hPa | 0 mm | - | - | - |
| 1778105337 | 16.11° C | 69% | 1012 hPa | 0 mm | - | - | - |
| 1778100533 | 17.78° C | 69% | 1011 hPa | 0 mm | - | - | - |
| 1778099571 | 18.33° C | 69% | 1011 hPa | 0 mm | - | - | - |
| 1778097650 | 19.44° C | 69% | 1011 hPa | 0 mm | - | - | - |
| 1778095728 | 20° C | 69% | 1012 hPa | 0 mm | - | - | - |
| 1778094767 | 20.56° C | 69% | 1012 hPa | 0 mm | - | - | - |
| 1778092841 | 20.56° C | 69% | 1012 hPa | 0 mm | - | - | - |
| 1778090920 | 18.33° C | 76% | 1013 hPa | 0 mm | - | - | - |
| 1778088035 | 18.33° C | 76% | 1014 hPa | 0 mm | - | - | - |
| 1778084192 | 18.33° C | 74% | 1015 hPa | 0 mm | - | - | - |
| 1778079389 | 18.89° C | 73% | 1016 hPa | 0 mm | - | - | - |
| 1778077466 | 16.11° C | 82% | 1017 hPa | 0 mm | - | - | - |
| 1778074582 | 15.56° C | 82% | 1017 hPa | 0 mm | - | - | - |
| 1778070738 | 12.78° C | 94% | 1017 hPa | 0 mm | - | - | - |
| 1778066896 | 9.44° C | 92% | 1017 hPa | 0 mm | - | - | - |
| 1778064975 | 10.56° C | 92% | 1017 hPa | 0 mm | - | - | - |
| 1778063054 | 9.44° C | 92% | 1016 hPa | 0 mm | - | - | - |
| 1778060171 | 11.11° C | 92% | 1016 hPa | 0 mm | - | - | - |
| 1778055368 | 13.89° C | 91% | 1016 hPa | 0 mm | - | - | - |
| 1778054407 | 14.44° C | 90% | 1016 hPa | 0 mm | - | - | - |
| 1778052486 | 15° C | 92% | 1016 hPa | 0 mm | - | - | - |
| 1778050562 | 15.56° C | 94% | 1016 hPa | 0 mm | - | - | - |
| 1778047678 | 10° C | 85% | 1017 hPa | 0 mm | - | - | - |
| 1778045756 | 10° C | 86% | 1017 hPa | 0 mm | - | - | - |
* Rain latest hour (hover to see other rain measurements)
** Current wind speed in m/s (hover to see current wind gust speed)